Regional Weather Roundup
Issued by NWS

Home | Current Version | Previous Version | Graphics & Text | Print | Product List | Glossary On
Versions: 1 2 3 4 5 6 7 8 9 10 11 12 13 14 15 16 17 18 19 20 21 22 23 24 25 26 27 28 29 30 31 32 33 34 35 36 37 38 39 40 41 42 43 44 45 46 47 48 49 50
000
ASUS43 KTOP 201508
RWRKS

WEATHER ROUNDUP FOR KANSAS
NATIONAL WEATHER SERVICE GOODLAND KS
900 AM CST SAT JAN 20 2018

NOTE:  "FAIR" INDICATES FEW OR NO CLOUDS BELOW 12,000 FEET WITH NO
SIGNIFICANT WEATHER AND/OR OBSTRUCTIONS TO VISIBILITY.

KSZ001>006-013>018-027>032-041>047-201600-
NORTHWEST KANSAS

CITY           SKY/WX    TMP DP  RH WIND       PRES   REMARKS
GOODLAND       CLEAR     27  24  89 NW6       29.76R
HAYS           CLOUDY    25  18  74 CALM      29.75R
HILL CITY      CLOUDY    28  25  88 N8        29.76R
RUSSELL        FOG       34  33  96 S10       29.75R VSB 1   WCI  26
$$

KSZ061>065-074>080-084>089-201600-
SOUTHWEST KANSAS

CITY           SKY/WX    TMP DP  RH WIND       PRES   REMARKS
DODGE CITY     CLOUDY    33  18  53 NW3       29.74R
ELKHART        CLEAR     49  22  35 W12       29.76R
GARDEN CITY    CLOUDY   N/A N/A N/A NW3       29.74S
LIBERAL        CLOUDY    36  17  46 NW6       29.76R
PRATT          FOG       39  38  97 S10G16    29.77R VSB 1/2 WCI  32
$$

KSZ066>073-081>083-090>101-201600-
SOUTHEAST KANSAS

CITY           SKY/WX    TMP DP  RH WIND       PRES   REMARKS
CHANUTE        CLOUDY    49  44  83 S13       29.91R
COFFEYVILLE    CLOUDY    51  46  83 S12       29.92R
HUTCHINSON     CLOUDY    48  45  89 S15       29.79S
MEDICINE LODGE   N/A     42  42 100 SE10      29.78S
NEWTON         CLOUDY    48  44  86 S17       29.82R
PARSONS        CLOUDY    50  46  86 S8        29.92R
WICHITA INTL   CLOUDY    49  46  90 S15       29.82R
WICHITA JABRA  CLOUDY    49  46  90 S15       29.83R
WICHITA MCCONL CLOUDY    49  44  84 S16       29.83R
WINFIELD       CLOUDY    50  46  86 S16       29.86S
$$

KSZ007>012-019>026-033>040-048>060-102>105-201600-
NORTHEAST KANSAS

CITY           SKY/WX    TMP DP  RH WIND       PRES   REMARKS
CONCORDIA      CLOUDY    36  35  96 CALM      29.79S FOG
EMPORIA        CLOUDY    46  43  89 S12       29.85S
LAWRENCE       CLOUDY    45  42  89 SE6       29.88S FOG
MANHATTAN      CLOUDY    50  44  80 S5        29.83R
MARYSVILLE     CLOUDY    41  39  93 S6        29.83R
OLATHE IND     CLOUDY    47  43  86 S8        29.90R
OLATHE EXE     CLOUDY    46  43  89 S8        29.90R
SALINA         MOSUNNY   43  42  97 S7        29.79S
TOPEKA BILLARD CLOUDY    46  43  89 SE5       29.86S
TOPEKA FORBES  CLOUDY    47  43  86 S13       29.85S
$$




USA.gov is the U.S. government's official web portal to all federal, state and local government web resources and services.